[[{"header":{"parameterUnit":"m.s-1","parameterCategory":1,"la1":30.2991,"la2":30.254,"lo1":-89.0895,"lo2":-89.0444,"dy":0.0017,"dx":0.0017,"nx":28,"ny":28,"refTime":"2026-01-09T09:00:00:Z","depth":0,"parameterNumber":2,"parameterNumberName":"U-component_of_WINDS"},"data":[0,0,0,0,0,0,0,0,0,0,0,0,0,0,0,0,0,0,0,0,0,0,0,0,0,0,0,0,0,0,0,0,0,0,0,0,0,0,0,0,0,0,0,0,0,0,0,0,0,0,0,0,0,0,0,0,0,0,-0.9007,-0.9008,0,-0.9078,-0.9079,-0.908,-0.9112,-0.9112,-0.9112,-0.9112,-0.919,-0.9192,-0.9194,0,0,0,0,0,0,0,0,0,0,0,0,0,-0.8904,-0.8906,-0.9007,-0.9008,-0.9009,-0.9078,-0.9079,-0.908,-0.9112,-0.9112,-0.9112,-0.9112,-0.9189,-0.9192,-0.9195,0,0,0,0,0,0,0,0,0,0,0,0,0,-0.8959,-0.8906,-0.9007,-0.9033,-0.9036,-0.9078,-0.9079,-0.908,-0.9112,-0.9112,-0.9112,-0.9112,-0.9189,-0.9192,-0.9195,-0.9218,0,0,-0.9205,-0.9206,0,0,0,0,0,0,0,0,-0.8956,-0.8963,-0.9028,-0.9031,-0.9035,-0.9086,-0.9072,-0.9127,-0.9112,-0.9083,-0.9112,-0.9112,-0.9156,-0.9162,-0.9176,-0.9222,-0.9225,-0.9205,-0.9207,-0.9209,-0.9209,0,0,0,0,0,0,0,-0.8952,-0.896,-0.9035,-0.9029,-0.9033,-0.9043,-0.9051,-0.9082,-0.912,-0.9086,-0.9088,-0.9096,-0.9158,-0.9172,-0.9178,-0.9226,-0.9205,-0.9208,-0.921,-0.9211,-0.9295,-0.9296,0,0,0,0,0,0,-0.8943,-0.8957,-0.9033,-0.9037,-0.8994,-0.9045,-0.9053,-0.907,-0.9119,-0.9127,-0.9096,-0.9097,-0.9167,-0.9174,-0.9181,-0.9211,-0.9209,-0.9212,-0.9213,-0.9295,-0.9295,-0.9296,0,0,0,0,0,0,-0.8941,-0.895,-0.903,-0.8998,-0.9009,-0.9047,-0.9065,-0.9071,-0.9086,-0.9127,-0.9135,-0.9104,-0.9167,-0.9176,-0.9208,-0.9214,-0.9213,-0.9216,-0.9295,-0.9295,-0.9296,-0.9272,0,0,0,0,0,0,-0.8938,-0.8949,-0.8957,-0.8998,-0.901,-0.9055,-0.9065,-0.9073,-0.9091,-0.9093,-0.9136,-0.9144,-0.9168,-0.9203,-0.9211,-0.9219,-0.9219,-0.9294,-0.9295,-0.9295,-0.9272,-0.9271,-0.9271,0,0,0,0,0,-0.8934,-0.8948,-0.8957,-0.8966,-0.9021,-0.9055,-0.9062,-0.9088,-0.9091,-0.91,-0.9127,-0.9142,-0.9212,-0.9206,-0.9216,-0.9224,-0.9294,-0.9295,-0.9295,-0.9273,-0.9272,-0.9271,0,0,0,0,0,0,-0.8909,-0.8954,-0.8964,-0.8992,-0.9019,-0.906,-0.9072,-0.9086,-0.9115,-0.9116,-0.9149,-0.9159,-0.9188,-0.921,-0.9202,-0.9249,-0.9255,-0.9257,-0.9234,-0.9233,-0.9233,-0.9227,-0.9221,0,0,0,0,0,-0.8906,-0.8928,-0.8968,-0.8988,-0.9001,-0.9034,-0.905,-0.9068,-0.9098,-0.9111,-0.914,-0.917,-0.9199,-0.9218,-0.9247,-0.9276,-0.9286,-0.9286,-0.9285,-0.9285,-0.9287,-0.9304,-0.9305,-0.9298,-0.9298,-0.9298,0,0,-0.8901,-0.8929,-0.8941,-0.8984,-0.9007,-0.9031,-0.9044,-0.9069,-0.9087,-0.9115,-0.9146,-0.9169,-0.9205,-0.9236,-0.9251,-0.9255,-0.9291,-0.9285,-0.9284,-0.9287,-0.9305,-0.9306,-0.9306,-0.9298,-0.9298,-0.9298,0,0,-0.8905,-0.8927,-0.8947,-0.897,-0.9004,-0.9026,-0.9031,-0.907,-0.9085,-0.9117,-0.9138,-0.9162,-0.9211,-0.9236,-0.9255,-0.9268,-0.9284,-0.9277,-0.9273,-0.929,-0.929,-0.9291,-0.9296,-0.9297,-0.9279,-0.9279,-0.9279,0,-0.8895,-0.893,-0.8956,-0.8979,-0.8998,-0.9022,-0.9043,-0.9064,-0.9107,-0.912,-0.9124,-0.9185,-0.9212,-0.9249,-0.9252,-0.9267,-0.9274,-0.9272,-0.9288,-0.9289,-0.929,-0.9295,-0.9297,-0.9278,-0.9278,-0.9278,-0.9278,0,-0.8917,-0.8941,-0.8953,-0.8991,-0.9011,-0.9034,-0.9064,-0.9082,-0.9098,-0.912,-0.9152,-0.9185,-0.9221,-0.9231,-0.9248,-0.9271,-0.9272,-0.9281,-0.9287,-0.9289,-0.9294,-0.9297,-0.9276,-0.9277,-0.9277,-0.9277,0,0,-0.8906,-0.8958,-0.8962,-0.898,-0.902,-0.904,-0.9064,-0.9097,-0.9112,-0.9141,-0.9163,-0.9203,-0.9212,-0.9234,-0.9254,-0.9268,-0.9277,-0.9276,-0.9277,-0.9275,-0.9305,-0.9298,-0.93,-0.9288,-0.9288,-0.9288,-0.9302,0,-0.8915,-0.8956,-0.898,-0.9013,-0.9036,-0.906,-0.9081,-0.9108,-0.913,-0.9154,-0.9179,-0.9207,-0.9216,-0.923,-0.9245,-0.9272,-0.9284,-0.9272,-0.931,-0.9311,-0.9299,-0.9303,-0.9295,-0.9307,-0.9305,-0.9305,-0.9305,0,-0.8931,-0.8957,-0.8991,-0.9028,-0.9039,-0.9057,-0.909,-0.9112,-0.9145,-0.916,-0.9184,-0.9203,-0.9231,-0.9235,-0.9275,-0.9266,-0.9283,-0.9299,-0.93,-0.9305,-0.9308,-0.9308,-0.9311,-0.9313,-0.9309,-0.9309,-0.9308,0,-0.892,-0.8964,-0.899,-0.9005,-0.9049,-0.9061,-0.9081,-0.9113,-0.9131,-0.9161,-0.9173,-0.9206,-0.9224,-0.925,-0.9279,-0.9279,-0.9316,-0.9322,-0.933,-0.933,-0.9337,-0.9336,-0.9343,-0.9348,-0.9348,-0.9348,-0.9348,0,-0.8928,-0.8948,-0.8986,-0.9002,-0.9026,-0.9054,-0.9077,-0.9099,-0.9127,-0.9149,-0.9172,-0.9193,-0.9229,-0.9255,-0.9278,-0.9308,-0.9316,-0.933,-0.9336,-0.9328,-0.9326,-0.9339,-0.9339,-0.9348,-0.9348,-0.9348,-0.9348,0,-0.8919,-0.8946,-0.8976,-0.9014,-0.9024,-0.904,-0.9074,-0.9092,-0.9114,-0.9142,-0.915,-0.9186,-0.9218,-0.9249,-0.9292,-0.9307,-0.9337,-0.9345,-0.9325,-0.9328,-0.9335,-0.9334,-0.9351,-0.9355,-0.9356,-0.9356,-0.9356,0,-0.8922,-0.8938,-0.8978,-0.8993,-0.9011,-0.9036,-0.9054,-0.9083,-0.9102,-0.914,-0.9153,-0.9186,-0.9214,-0.9263,-0.9295,-0.9328,-0.9337,-0.9341,-0.9342,-0.9334,-0.9337,-0.9336,-0.9338,-0.934,-0.934,-0.9339,-0.9339,0,-0.8925,-0.8937,-0.8962,-0.8991,-0.9012,-0.9037,-0.9063,-0.9075,-0.9109,-0.913,-0.9161,-0.9182,-0.9225,-0.9258,-0.9295,-0.9317,-0.9334,-0.9338,-0.9342,-0.9334,-0.9322,-0.9329,-0.9323,-0.9338,-0.9338,-0.9338,-0.9338,-0.9338,-0.8923,-0.8938,-0.8967,-0.8995,-0.9017,-0.9041,-0.9059,-0.9083,-0.9109,-0.9144,-0.916,-0.9192,-0.9226,-0.9276,-0.9298,-0.9325,-0.933,-0.9335,-0.9336,-0.9337,-0.9335,-0.9318,-0.9332,-0.9332,-0.9332,-0.9332,-0.9332,0,-0.8927,-0.8947,-0.8971,-0.9006,-0.9027,-0.904,-0.9069,-0.9087,-0.9114,-0.9143,-0.9169,-0.9205,-0.9237,-0.9271,-0.9305,-0.932,-0.9329,-0.9328,-0.9328,-0.9333,-0.9329,-0.9323,-0.932,-0.932,-0.932,-0.932,-0.932,-0.932,-0.8931,-0.8957,-0.8973,-0.901,-0.9031,-0.9061,-0.9077,-0.9099,-0.9122,-0.9161,-0.9187,-0.9208,-0.9239,-0.9276,-0.9306,-0.9315,-0.9327,-0.9324,-0.9336,-0.9332,-0.9333,-0.9334,-0.9327,-0.9326,-0.9326,-0.9337,-0.9337,-0.9337]},{"header":{"parameterUnit":"m.s-1","parameterCategory":1,"la1":30.2991,"la2":30.254,"lo1":-89.0895,"lo2":-89.0444,"dy":0.0017,"dx":0.0017,"nx":28,"ny":28,"refTime":"2026-01-09T09:00:00:Z","depth":0,"parameterNumber":3,"parameterNumberName":"V-component_of_WINDS"},"data":[0,0,0,0,0,0,0,0,0,0,0,0,0,0,0,0,0,0,0,0,0,0,0,0,0,0,0,0,0,0,0,0,0,0,0,0,0,0,0,0,0,0,0,0,0,0,0,0,0,0,0,0,0,0,0,0,0,0,4.2932,4.2932,0,4.2938,4.2938,4.2938,4.2931,4.2931,4.293,4.293,4.2933,4.2934,4.2934,0,0,0,0,0,0,0,0,0,0,0,0,0,4.2913,4.2913,4.2932,4.2932,4.2932,4.2938,4.2938,4.2938,4.2931,4.2931,4.293,4.293,4.2933,4.2934,4.2934,0,0,0,0,0,0,0,0,0,0,0,0,0,4.292,4.2913,4.2932,4.2929,4.2929,4.2938,4.2938,4.2938,4.2931,4.2931,4.293,4.293,4.2933,4.2934,4.2934,4.2944,0,0,4.2935,4.2936,0,0,0,0,0,0,0,0,4.292,4.2921,4.2929,4.2929,4.2929,4.2933,4.2932,4.294,4.2931,4.293,4.293,4.293,4.2933,4.2934,4.2936,4.2944,4.2945,4.2935,4.2936,4.2936,4.2936,0,0,0,0,0,0,0,4.2919,4.292,4.2934,4.293,4.2929,4.2927,4.2928,4.2934,4.2934,4.293,4.293,4.2931,4.2933,4.2935,4.2936,4.2945,4.2935,4.2936,4.2936,4.2936,4.2966,4.2966,0,0,0,0,0,0,4.2919,4.292,4.2934,4.2934,4.2924,4.2928,4.2929,4.2932,4.2934,4.2934,4.2931,4.293,4.2935,4.2935,4.2936,4.295,4.2936,4.2936,4.2937,4.2965,4.2966,4.2966,0,0,0,0,0,0,4.2919,4.2921,4.2933,4.2927,4.2929,4.2929,4.2933,4.2933,4.2935,4.2934,4.2934,4.2933,4.2934,4.2935,4.2943,4.295,4.2937,4.2937,4.2965,4.2965,4.2966,4.2978,0,0,0,0,0,0,4.2918,4.292,4.2924,4.2927,4.2929,4.2941,4.2933,4.2933,4.2936,4.2935,4.2936,4.2936,4.2934,4.2943,4.2944,4.2951,4.2937,4.2964,4.2965,4.2966,4.2977,4.2979,4.2981,0,0,0,0,0,4.2918,4.2926,4.2925,4.2926,4.2934,4.2941,4.2942,4.2941,4.2936,4.2941,4.2941,4.2936,4.2949,4.2943,4.2945,4.2952,4.2963,4.2965,4.2966,4.2976,4.2979,4.2981,0,0,0,0,0,0,4.2922,4.2926,4.2925,4.2934,4.2938,4.294,4.2945,4.2943,4.2947,4.2946,4.2943,4.2943,4.2953,4.2953,4.2946,4.2963,4.2956,4.2957,4.2963,4.2965,4.2967,4.2967,4.2938,0,0,0,0,0,4.2924,4.2931,4.2934,4.2942,4.2944,4.2945,4.2948,4.2947,4.295,4.2951,4.2951,4.2954,4.2959,4.2962,4.2966,4.2977,4.2978,4.2983,4.2984,4.2986,4.2987,4.2996,4.2999,4.297,4.297,4.297,0,0,4.2928,4.2932,4.2935,4.2943,4.2945,4.2952,4.2946,4.2952,4.2957,4.2951,4.296,4.2961,4.2963,4.2974,4.2978,4.2974,4.2996,4.2987,4.2989,4.2989,4.2997,4.3,4.3002,4.2971,4.2971,4.297,0,0,4.294,4.2942,4.2951,4.2955,4.296,4.2961,4.2963,4.2966,4.2967,4.2976,4.2973,4.2979,4.2987,4.299,4.2992,4.3009,4.3005,4.301,4.302,4.3028,4.3031,4.3033,4.3041,4.3043,4.3011,4.3011,4.3012,0,4.2944,4.2955,4.2955,4.2963,4.2968,4.2965,4.2974,4.2977,4.2982,4.2985,4.2981,4.2994,4.2995,4.3007,4.3012,4.3013,4.3016,4.301,4.3031,4.3033,4.3034,4.3042,4.3045,4.3012,4.3012,4.3012,4.3012,0,4.2961,4.2969,4.2975,4.2983,4.2988,4.2996,4.2998,4.3003,4.3002,4.3004,4.3014,4.3016,4.3023,4.3025,4.3023,4.3038,4.3036,4.3031,4.3023,4.3038,4.3045,4.3048,4.3013,4.3013,4.3013,4.3013,0,0,4.2973,4.2984,4.2986,4.2992,4.2999,4.3005,4.3014,4.3022,4.3027,4.3031,4.304,4.3048,4.3045,4.3048,4.3047,4.3054,4.307,4.3048,4.3049,4.3054,4.3089,4.3093,4.3097,4.3068,4.3068,4.3068,4.3089,0,4.2986,4.3004,4.3006,4.3021,4.303,4.3029,4.3037,4.3042,4.3045,4.3052,4.3054,4.3061,4.3055,4.3057,4.3064,4.3066,4.3077,4.3065,4.3076,4.3076,4.3076,4.31,4.3104,4.3123,4.3092,4.3092,4.3093,0,4.3003,4.3011,4.3029,4.3038,4.3041,4.3049,4.3058,4.3065,4.3072,4.3073,4.3078,4.3077,4.3087,4.3079,4.3094,4.3086,4.309,4.3093,4.3093,4.3095,4.3086,4.3103,4.3129,4.3133,4.3096,4.3096,4.3096,0,4.3012,4.3027,4.3041,4.3045,4.3055,4.3061,4.3066,4.3072,4.3078,4.3086,4.309,4.3098,4.3102,4.3109,4.311,4.3104,4.3126,4.3117,4.3128,4.3128,4.3132,4.3132,4.3161,4.3134,4.3133,4.3133,4.3133,0,4.3027,4.3038,4.3046,4.3054,4.3067,4.307,4.3082,4.3086,4.3093,4.3102,4.31,4.3109,4.311,4.3119,4.3119,4.3133,4.3134,4.3136,4.3137,4.3137,4.3137,4.3141,4.314,4.3134,4.3134,4.3134,4.3134,0,4.3039,4.3045,4.306,4.307,4.3073,4.3082,4.3091,4.3099,4.3102,4.3114,4.3117,4.3122,4.3133,4.3135,4.3146,4.3147,4.3164,4.3162,4.3163,4.3163,4.3174,4.3174,4.3207,4.3212,4.318,4.318,4.3181,0,4.3049,4.3058,4.307,4.3078,4.3083,4.3094,4.3101,4.3105,4.3112,4.3123,4.313,4.3141,4.315,4.3167,4.3172,4.3182,4.3181,4.3192,4.3182,4.3184,4.3183,4.3183,4.3185,4.3194,4.3194,4.3194,4.3195,0,4.3065,4.3069,4.308,4.3093,4.3102,4.3111,4.3121,4.3126,4.3131,4.314,4.3152,4.316,4.3174,4.3185,4.3196,4.32,4.3199,4.3198,4.3201,4.3202,4.3203,4.3205,4.3169,4.3197,4.3197,4.3197,4.3197,4.3196,4.3077,4.3087,4.3099,4.3112,4.312,4.3129,4.3139,4.3145,4.3156,4.3169,4.3171,4.3185,4.3194,4.3208,4.3214,4.3225,4.3221,4.3225,4.3227,4.3228,4.323,4.3201,4.3226,4.3226,4.3226,4.3226,4.3226,0,4.3096,4.3104,4.3116,4.3131,4.3142,4.3142,4.3153,4.3162,4.3175,4.3185,4.3195,4.3211,4.3223,4.323,4.3242,4.325,4.325,4.3253,4.3253,4.3254,4.3231,4.3228,4.3253,4.3253,4.3253,4.3253,4.3253,4.3253,4.3106,4.3123,4.3129,4.315,4.3158,4.3174,4.3181,4.319,4.3198,4.3217,4.3228,4.3233,4.3242,4.3256,4.3267,4.3269,4.3274,4.3278,4.328,4.3258,4.3256,4.3253,4.325,4.3279,4.3279,4.3302,4.3302,4.3302]}]]